Location: Caltech
(34.1382°N, 118.1253°W)
Time: 07:40:17
(UTC-07:00)

CZ-2C R/B - Visible Passes

Search period start: 24 July 2016 00:00
Search period end: 03 August 2016 00:00
Orbit: 703 x 909 km, 98.2° (Epoch: 23 July)

Date Brightness Start Highest point End Pass type
(mag) Time Alt. Az. Time Alt. Az. Time Alt. Az.
24 Jul 4.8 01:00:52 28° NNE 01:00:52 28° NNE 01:03:26 10° N visible
24 Jul 5.5 02:41:57 11° NW 02:41:57 11° NW 02:42:10 10° NW visible
25 Jul 5.1 00:35:54 20° NE 00:35:54 20° NE 00:38:04 10° NNE visible
25 Jul 5.2 02:16:58 17° NW 02:16:58 17° NW 02:18:18 10° NW visible
26 Jul 5.5 00:10:55 12° NE 00:10:55 12° NE 00:12:00 10° NE visible
26 Jul 4.9 01:52:00 23° NNW 01:52:00 23° NNW 01:53:54 10° NNW visible
27 Jul 4.8 01:27:02 27° N 01:27:02 27° N 01:29:12 10° N visible
28 Jul 5.0 01:02:04 24° NNE 01:02:04 24° NNE 01:04:11 10° N visible
29 Jul 5.3 00:37:05 18° NE 00:37:05 18° NE 00:38:51 10° NNE visible
29 Jul 5.3 02:18:10 14° NW 02:18:10 14° NW 02:18:59 10° NW visible
30 Jul 5.6 00:12:07 12° NE 00:12:07 12° NE 00:12:48 10° NE visible
30 Jul 5.1 01:53:11 19° NNW 01:53:11 19° NNW 01:54:38 10° NNW visible
31 Jul 5.1 01:28:13 22° N 01:28:13 22° N 01:29:56 10° N visible
01 Aug 5.2 01:03:14 21° NNE 01:03:14 21° NNE 01:04:56 10° N visible
02 Aug 5.4 00:38:16 16° NNE 00:38:16 16° NNE 00:39:36 10° NNE visible
02 Aug 5.5 02:19:21 12° NW 02:19:21 12° NW 02:19:40 10° NW visible
